Skip Page Navigation
NASA JPL Caltech
NASA Logo - Jet Propulsion Laboratory + View the NASA Portal
+ Center for Near-Earth Object Studies
JPL Home Earth Solar System Stars & Galaxies Technology
JPL Solar System Dynamics
BODIES ORBITS EPHEMERIDES TOOLS PHYSICAL DATA DISCOVERY FAQ SITE MAP
IMPORTANT: The SSD Announcement email list is now available. Major changes are coming in the near future, including possible hostname and/or URL changes. To be notified of such changes, subscribe to this email list.

Please visit this page for more details.


JPL Small-Body Database Browser
Search: [ help ]  
266092 (2006 SM53)
Classification: Main-belt Asteroid          SPK-ID: 2266092
Ephemeris | Orbit Diagram | Orbital Elements | Mission Design | Physical Parameters | Discovery Circumstances ]

[ show orbit diagram ]
Orbital Elements at Epoch 2458600.5 (2019-Apr-27.0) TDB
Reference: JPL 9 (heliocentric ecliptic J2000)
 Element Value Uncertainty (1-sigma)   Units 
e .2003372679839117 7.0716e-08  
a 2.336213428621151 1.4923e-08 au
q 1.868182812903862 1.6485e-07 au
i 1.788564360943714 9.1509e-06 deg
node 190.3323773211226 0.00020038 deg
peri 217.7293891727257 0.00020166 deg
M 169.4783314195573 2.3337e-05 deg
tp 2457986.485143147334
(2017-Aug-20.98514315)
8.0726e-05 TDB
period 1304.269086292478
3.57
1.2497e-05
3.421e-08
d
yr
n .2760166623463705 2.6447e-09 deg/d
Q 2.80424404433844 1.7913e-08 au
  Orbit Determination Parameters
   # obs. used (total)      177  
   data-arc span      7112 days (19.47 yr)  
   first obs. used      1999-12-07  
   last obs. used      2019-05-28  
   planetary ephem.      DE431  
   SB-pert. ephem.      SB431-N16  
   condition code      0  
   norm. resid. RMS      .56984  
   source      ORB  
   producer      Otto Matic  
   solution date      2019-Sep-24 04:36:14  

Additional Information
 Earth MOID = .878024 au 
 Jupiter MOID = 2.57782 au 
 T_jup = 3.540 
[ show covariance matrix ]

Ephemeris | Orbit Diagram | Orbital Elements | Mission Design | Physical Parameters | Discovery Circumstances ]

Physical Parameter Table
Parameter Symbol Value Units Sigma Reference Notes
absolute magnitude H 17.6   n/a MPO191307  

266092 (2006 SM53)          Discovered 2006-Sep-19 by La Sagra at La Sagra
Reference: 20110218/Numbers.arcLast Updated: 2011-02-22

Alternate Designations
 2006 SM53 = 1999 XP57 
Ephemeris | Orbit Diagram | Orbital Elements | Mission Design | Physical Parameters | Discovery Circumstances ]
ABOUT SSD CREDITS/AWARDS PRIVACY/COPYRIGHT GLOSSARY LINKS
FirstGov 2019-Dec-11 17:28 UT
(server date/time)  
NASA Home Page
Site Manager:   Ryan S. Park
Webmaster  Alan B. Chamberlin